Theta_e
295 289 286 287 289 290 291 291 291 291 290 290 289 288 287 287 289 291 293 295 295 292 290 291 291 291 293 295 296 297 294 296 306 311 315 319 321 322 324 325 326 325 325 331 332 331 328 326 327 327 327 328 328 330 333 334 334 335 334 333 331 331 331 330 329 329 328 327 325 324 326 326 327 328 328 331 329 330 330 333 334 334 333 332 333 331
296 287 288 290 291 291 292 292 292 291 291 290 288 288 287 289 287 292 293 296 297 293 288 291 291 291 293 295 296 297 294 293 303 311 314 318 320 322 323 324 324 324 328 323 322 323 325 325 325 325 325 327 326 327 329 331 333 334 334 332 331 330 330 329 329 328 327 327 326 325 325 324 326 326 326 326 325 329 331 330 331 332 331 331 332 332
287 287 290 292 293 294 293 293 293 291 291 290 288 287 286 288 291 294 294 296 296 296 290 293 290 290 293 295 296 296 295 294 303 313 315 317 318 320 322 323 323 323 317 319 321 322 323 324 324 324 325 325 327 327 327 329 332 333 332 331 329 329 329 328 328 327 326 326 327 326 324 325 324 326 326 326 327 330 330 329 330 330 330 331 332 332
285 287 291 294 293 292 292 292 292 292 292 288 287 285 285 290 288 286 292 296 297 296 292 292 290 291 293 294 295 297 296 296 302 313 316 318 318 319 321 323 322 318 317 318 319 320 321 322 322 323 323 324 325 325 326 328 331 332 331 330 329 329 329 328 328 328 328 328 326 326 324 323 324 321 324 324 326 327 327 327 328 327 330 330 331 331
287 292 293 293 292 292 291 291 290 288 287 290 290 288 287 289 290 289 289 294 296 296 296 292 289 287 290 290 291 294 295 301 305 312 315 318 319 321 322 322 322 318 318 318 319 319 320 321 321 322 323 324 324 325 327 329 330 331 329 330 330 329 329 329 331 329 327 327 323 323 323 322 321 322 322 323 322 323 325 324 324 327 328 329 329 328
290 294 296 291 291 291 290 289 290 290 285 287 291 291 291 292 291 291 293 292 288 288 292 287 280 281 284 289 290 292 293 297 307 312 313 315 317 319 318 319 318 319 320 320 319 319 320 321 321 321 322 323 324 325 327 330 331 331 330 330 330 330 330 330 329 327 326 324 322 321 319 318 317 317 319 319 321 321 322 321 322 324 325 328 328 328
291 295 294 292 291 290 290 289 291 292 287 286 287 293 294 293 292 292 291 291 284 281 289 295 283 277 283 290 291 292 293 293 303 310 312 314 316 317 317 317 317 318 318 319 319 319 319 320 320 320 321 322 323 325 327 329 330 331 331 331 331 330 330 329 327 325 325 322 322 321 319 318 318 317 318 320 323 323 321 322 321 322 323 326 328 326
293 293 292 292 291 289 288 287 291 292 288 285 291 293 293 291 291 291 292 290 286 290 293 292 286 279 282 285 289 292 291 293 298 305 309 313 315 315 315 316 318 317 318 318 318 319 320 320 320 320 321 322 323 325 326 328 330 331 331 331 330 330 329 328 326 324 324 322 321 319 318 318 318 319 318 320 321 322 322 321 320 319 320 323 325 325
292 291 291 289 289 288 287 291 293 293 290 288 293 295 294 293 293 292 290 288 287 287 282 285 292 283 279 284 291 293 291 290 296 305 309 313 314 314 314 316 318 318 318 319 318 318 318 319 320 321 321 323 324 325 326 328 330 331 331 331 330 329 328 327 325 324 324 324 323 321 321 320 320 319 319 320 322 321 322 319 318 319 319 320 320 321
293 293 293 293 290 288 292 294 294 294 290 293 295 296 295 295 294 293 288 287 287 284 278 284 288 283 278 283 288 289 290 291 293 305 310 312 314 314 314 315 316 316 317 318 318 319 319 319 320 322 323 323 324 325 327 329 331 331 331 329 329 328 327 326 325 324 324 323 323 322 322 322 319 319 318 320 320 319 319 318 317 317 317 317 319 320
294 299 301 294 291 293 294 294 296 295 296 295 294 293 291 291 290 288 289 285 284 279 280 285 290 286 280 282 288 290 293 295 298 307 309 312 314 314 314 315 315 316 316 317 318 318 319 320 321 322 322 323 324 325 328 329 330 330 330 329 327 327 325 325 324 324 323 323 323 323 323 321 317 317 317 317 316 317 317 318 316 316 317 318 319 319
294 295 293 294 299 297 296 294 296 297 296 294 291 288 287 286 285 287 285 285 279 273 279 286 290 289 281 282 289 294 297 297 304 307 309 311 312 313 314 315 316 316 317 317 317 317 318 319 320 321 321 322 323 325 326 327 329 329 329 328 326 324 323 324 323 322 322 322 322 323 324 320 318 317 317 316 316 317 317 317 315 315 317 316 317 316
289 291 292 295 301 297 294 292 290 293 291 292 289 286 282 276 277 276 277 278 275 276 283 287 290 286 283 284 294 298 299 300 304 311 311 311 312 313 314 314 315 316 317 317 318 318 317 317 318 319 321 322 322 324 326 327 327 327 326 325 323 322 322 323 322 322 321 320 321 322 323 321 319 317 316 316 316 316 316 316 317 316 316 315 316 314
285 291 292 293 295 298 293 288 285 289 288 288 286 282 280 276 275 270 272 273 276 281 286 286 290 284 285 293 298 298 301 307 309 310 312 313 313 314 314 314 315 316 317 317 318 318 317 317 318 319 321 322 323 324 326 327 326 325 324 323 323 322 322 322 321 321 320 320 320 321 322 322 319 317 317 316 318 317 317 318 317 316 317 316 315 313
278 281 286 291 288 296 293 291 290 288 286 287 288 287 283 277 277 273 276 275 275 277 281 288 286 280 284 290 300 303 305 309 312 313 313 314 314 314 315 315 316 315 315 317 317 318 318 318 318 319 321 322 323 324 325 325 325 324 323 323 322 322 322 321 320 319 319 319 320 320 321 322 319 318 317 317 319 318 318 318 318 317 318 317 315 315
285 282 288 293 294 294 294 294 294 292 290 287 290 289 283 282 281 279 275 278 280 279 281 282 281 287 290 299 302 305 308 309 312 312 313 313 314 315 314 314 315 315 315 316 316 317 318 319 319 320 320 321 323 324 324 324 324 323 323 323 322 322 322 321 319 318 319 318 319 319 319 320 319 319 318 318 319 318 319 318 318 318 318 317 317 317
285 281 290 294 295 294 295 296 295 294 283 287 288 283 288 291 288 279 280 284 278 279 279 280 286 290 295 298 300 303 306 306 309 311 311 312 313 314 313 314 315 316 316 316 316 316 317 319 320 321 321 322 323 323 323 323 323 323 322 322 322 322 321 321 319 319 319 319 319 318 319 319 318 318 317 318 318 317 317 319 319 318 317 317 317 318
282 282 290 292 290 294 295 296 295 296 293 289 285 288 292 296 293 285 278 280 275 274 275 280 281 284 281 282 298 300 304 305 308 308 308 309 311 311 312 314 316 316 317 318 317 317 318 319 319 320 321 322 322 322 323 323 320 320 322 323 322 322 320 320 320 320 320 320 320 319 319 318 318 318 317 318 317 318 318 317 317 316 316 316 318 318
289 282 286 291 292 294 297 295 292 293 296 293 290 294 289 280 282 282 281 276 274 274 274 280 285 285 287 285 293 295 299 304 306 307 307 308 310 311 314 315 316 317 317 316 317 317 317 317 318 319 319 321 320 321 322 322 321 321 321 322 323 322 322 321 322 321 321 322 322 321 319 319 317 317 318 317 317 317 317 315 315 315 316 316 316 316
290 282 281 290 294 295 297 290 282 285 291 295 297 294 295 287 281 282 280 281 278 275 274 277 281 277 291 289 296 297 300 303 307 308 308 309 310 311 312 313 315 315 315 316 317 318 319 318 318 318 319 320 320 320 321 321 320 320 321 320 322 322 322 322 322 322 322 322 322 320 319 318 318 318 317 316 316 316 315 315 315 315 315 316 315 312
286 286 278 284 293 294 287 292 289 289 286 285 288 287 292 290 293 288 288 283 280 279 274 276 276 282 290 296 299 300 301 303 306 307 308 310 311 312 312 312 313 314 314 315 316 316 317 317 317 317 318 320 320 320 321 320 320 320 320 321 321 322 323 323 323 323 322 321 321 320 319 319 317 316 316 316 316 316 315 315 315 315 315 314 313 312
285 281 282 284 287 285 290 298 296 295 293 290 284 285 287 288 285 282 279 287 286 281 279 278 274 281 290 303 303 302 301 304 306 306 306 308 309 310 312 313 313 314 315 315 315 316 316 315 316 316 318 317 318 318 319 319 319 319 319 320 323 324 324 323 323 322 321 320 321 320 320 319 317 316 316 315 315 315 315 315 314 314 314 313 312 312
292 286 284 283 282 287 295 296 299 299 298 296 294 291 290 287 286 281 278 281 284 286 287 282 282 283 296 302 303 303 303 305 306 307 306 307 307 309 310 312 314 315 315 315 314 315 315 314 315 317 317 317 317 317 317 317 318 319 320 321 322 323 322 323 323 322 321 321 320 319 320 320 318 318 317 316 314 314 315 314 314 315 314 313 312 312
310 282 281 283 287 290 294 296 298 298 296 293 294 295 293 288 289 284 284 286 283 284 281 280 280 286 300 303 303 303 303 303 305 306 306 306 306 306 307 309 312 313 313 314 315 315 314 315 316 317 316 317 317 317 318 318 319 319 319 319 319 319 320 321 322 322 321 320 320 320 320 320 320 320 319 317 315 314 314 315 314 314 314 313 312 313
287 285 285 279 279 281 285 289 292 295 295 290 289 292 294 294 293 290 288 285 284 284 285 282 276 283 298 304 303 303 303 304 304 305 306 305 306 307 308 309 310 313 314 314 314 314 315 316 316 316 316 316 317 316 315 317 317 317 317 317 318 318 319 320 320 321 321 321 319 319 318 319 320 319 320 319 316 314 314 314 313 313 313 312 311 312
287 285 283 279 275 274 274 276 280 283 287 289 292 293 294 294 291 287 284 280 281 282 286 282 281 289 300 302 301 301 303 303 304 305 306 307 307 307 306 304 303 305 307 310 312 312 312 313 314 314 314 315 315 316 316 317 318 318 318 317 318 318 317 317 318 319 319 319 318 317 317 318 318 319 317 318 317 315 315 315 314 314 313 313 311 312
287 289 284 281 278 277 280 283 290 291 291 285 290 292 292 294 294 289 283 281 281 280 279 285 290 292 296 299 299 299 301 301 301 303 304 304 302 299 298 298 299 300 300 301 302 302 302 302 302 304 306 310 314 315 314 316 317 317 316 317 318 318 317 317 317 317 316 317 317 317 317 317 317 317 317 317 318 319 318 315 315 314 314 312 310 311
288 281 289 288 288 289 289 290 292 292 289 291 291 291 293 293 292 292 285 284 285 282 282 288 295 293 295 298 299 299 300 301 302 302 303 301 298 296 296 297 298 297 297 297 297 297 296 297 297 298 299 300 303 309 314 315 316 315 315 316 317 317 317 317 316 315 315 316 316 317 317 317 317 316 316 316 318 319 319 319 317 314 314 314 312 312
288 283 289 289 288 292 293 293 293 292 292 292 292 292 291 293 293 291 288 290 288 279 282 292 295 293 296 298 298 299 301 302 303 304 303 299 296 296 295 295 295 295 295 294 295 295 295 295 295 296 297 298 299 300 301 305 309 313 316 316 317 317 317 316 316 317 316 316 315 315 316 316 317 317 317 317 317 317 318 318 319 318 316 314 314 314
291 285 291 292 290 292 294 294 293 291 290 291 291 293 294 293 292 292 291 291 289 286 290 295 295 294 298 298 299 301 304 304 305 305 301 296 295 294 294 294 294 295 294 293 294 294 294 295 295 295 296 297 298 299 299 300 301 302 305 311 316 317 317 316 315 315 315 315 314 315 316 315 315 316 317 317 317 317 318 318 317 317 316 315 314 313
292 285 292 292 285 288 291 293 294 293 290 287 289 289 290 291 293 293 293 292 294 293 295 296 294 292 299 302 301 301 299 298 297 298 297 295 295 294 293 292 292 292 294 293 293 293 294 294 295 295 295 295 296 297 298 299 300 301 304 307 312 314 316 317 315 314 314 314 315 315 316 316 315 315 315 316 316 314 317 317 317 316 315 315 314 314
293 286 291 288 283 284 291 290 291 292 290 288 286 287 288 287 287 291 289 292 291 291 293 293 290 289 294 295 294 294 293 293 293 292 292 293 293 293 292 292 291 292 292 292 292 292 292 293 293 294 294 295 296 296 296 297 298 299 301 302 302 302 303 303 303 303 304 308 313 316 316 314 315 314 314 313 315 315 315 316 315 314 311 313 313 312
291 287 285 284 284 282 288 290 290 291 288 285 284 286 287 289 290 292 294 294 295 295 290 289 288 294 293 294 292 291 291 291 291 291 291 291 292 292 291 291 291 291 291 292 292 293 293 293 293 293 294 295 295 296 296 296 297 297 299 301 302 302 301 301 300 300 300 301 302 303 308 314 315 315 313 313 313 313 313 312 313 314 314 313 313 311
292 290 286 289 283 282 287 284 287 283 277 278 288 291 289 287 290 290 288 290 292 291 287 292 292 293 293 293 291 289 290 290 291 292 293 291 290 290 290 291 291 292 292 292 293 293 294 294 295 294 296 296 296 297 297 297 297 297 299 300 301 301 300 300 300 299 299 300 300 300 300 301 301 302 304 308 309 310 310 311 312 311 311 311 309 311
286 286 285 288 283 283 284 284 281 276 278 288 291 291 289 293 293 290 290 290 292 294 293 291 291 291 292 292 291 290 290 290 293 292 292 293 292 291 290 290 290 290 291 291 292 293 293 295 296 296 295 296 298 297 298 297 297 297 298 299 298 299 299 299 299 298 298 297 298 298 297 298 297 298 300 302 303 303 304 305 306 307 309 310 310 309
284 286 284 283 283 283 283 282 276 276 286 289 288 289 292 292 289 291 289 289 291 291 294 289 289 290 290 291 291 291 290 291 292 293 293 294 294 292 291 290 292 292 291 292 292 293 294 295 295 295 295 297 297 298 298 298 298 298 299 300 300 299 298 298 298 298 298 297 297 297 298 297 297 297 298 298 299 299 299 300 301 302 304 305 307 307
292 287 284 283 284 281 280 281 281 285 286 285 283 287 286 284 286 285 282 284 290 291 292 287 287 288 288 289 290 291 291 291 288 289 293 293 292 293 293 292 292 292 293 294 294 295 296 297 296 297 297 296 297 297 297 298 298 298 298 299 299 299 298 297 297 297 297 297 297 297 297 297 297 297 297 297 297 297 297 297 298 298 300 300 300 301
291 285 284 284 282 283 282 280 281 279 275 279 285 289 293 291 292 291 286 282 289 290 291 289 287 288 288 289 289 289 291 288 283 284 291 293 293 293 293 293 293 293 294 294 295 295 296 296 297 298 297 296 296 296 297 296 297 297 298 298 298 297 297 297 297 298 297 297 297 297 297 297 297 297 297 296 296 296 296 297 297 297 298 297 297 298
291 290 285 283 282 282 281 277 277 273 277 282 285 288 291 294 294 293 285 280 288 289 289 290 288 288 288 288 288 288 287 283 282 285 290 292 293 293 292 293 293 293 294 294 294 294 294 294 296 296 295 294 295 295 296 296 296 296 296 296 296 296 296 296 296 297 297 297 298 298 298 298 298 298 297 297 297 297 297 296 296 297 297 297 297 298
287 284 284 284 281 281 281 278 277 281 280 285 287 288 290 291 295 290 279 278 287 290 290 289 288 289 289 290 290 288 286 282 283 287 292 292 292 292 292 293 293 294 295 296 295 295 296 295 293 292 292 293 293 294 294 295 295 296 295 295 295 295 295 295 296 296 297 297 297 298 298 298 298 298 298 298 298 298 298 298 297 297 297 297 297 297
281 282 283 281 282 282 281 279 280 280 284 287 287 289 290 291 290 280 277 283 292 291 292 292 291 292 292 290 290 285 286 289 290 291 292 293 292 292 293 294 294 293 293 292 293 295 293 293 293 293 293 294 295 295 296 296 295 295 295 294 293 294 294 295 295 296 296 296 297 297 297 297 297 296 297 297 297 297 297 297 297 297 297 297 297 297
279 280 282 283 281 280 278 277 278 279 284 288 289 290 289 287 277 276 285 292 293 292 293 292 291 291 291 290 289 289 289 291 292 292 291 291 290 290 291 292 292 292 293 294 294 294 294 294 295 295 296 296 296 296 295 295 295 295 294 294 293 293 294 294 294 294 295 295 295 296 296 296 295 296 297 296 296 294 294 295 295 295 295 295 294 294
279 277 279 279 281 281 279 275 275 272 282 289 289 287 288 282 280 287 288 289 291 291 291 291 291 290 290 288 290 290 290 289 289 289 289 289 289 289 290 291 291 291 291 292 293 294 294 294 294 295 295 295 295 295 295 294 294 293 293 292 291 293 293 294 294 293 293 294 293 294 294 294 294 294 296 295 294 293 293 293 293 293 293 292 292 292
284 278 279 279 283 277 276 275 275 281 285 289 287 282 284 287 289 289 289 288 290 290 289 289 289 290 290 289 288 289 289 288 288 289 289 289 289 290 291 292 292 292 291 292 293 293 293 292 294 294 294 295 295 294 294 294 293 293 292 291 292 293 293 293 292 292 292 292 292 292 293 293 294 293 293 293 293 293 292 293 293 293 293 293 292 292
284 281 280 278 282 279 279 281 285 287 288 289 289 287 288 290 291 291 290 290 289 290 291 289 289 289 290 290 289 289 288 288 288 289 289 290 290 291 290 290 291 292 292 292 292 293 293 292 292 291 292 291 291 292 292 291 292 291 290 291 292 293 292 292 292 292 291 291 291 291 292 292 292 292 292 292 292 292 292 291 292 291 291 291 291 291
288 289 288 286 283 287 288 288 289 288 288 289 290 290 290 291 293 293 291 289 290 290 291 290 290 290 290 290 289 288 288 290 290 289 288 289 290 290 291 290 291 291 292 291 291 291 291 291 291 291 291 291 292 292 292 292 291 291 290 291 291 290 291 291 291 291 290 290 289 290 291 290 290 290 291 291 291 290 290 290 290 290 290 289 289 289
285 286 284 282 285 283 277 286 287 287 288 289 289 291 292 292 292 293 293 293 292 292 291 292 292 291 291 291 290 289 289 290 290 290 290 289 289 288 289 289 289 290 290 289 289 290 290 290 290 291 291 291 291 291 292 291 292 291 291 290 291 291 290 290 289 290 289 288 289 289 288 288 289 289 290 289 290 290 291 290 290 290 289 289 288 289
281 287 284 282 280 278 280 285 287 288 288 289 290 289 289 290 291 292 293 293 293 294 294 293 294 293 292 290 289 288 288 288 288 287 288 288 288 288 289 289 290 290 290 290 290 289 289 289 289 290 291 291 290 291 291 291 291 291 291 291 291 290 290 290 289 289 288 289 289 289 289 289 288 289 288 289 289 288 289 289 290 289 289 289 289 288
283 285 279 282 280 281 284 285 286 287 286 286 288 289 290 290 290 290 291 292 292 291 291 292 292 291 291 290 290 289 288 287 287 287 287 287 288 288 289 290 291 291 291 290 289 289 290 292 291 291 291 291 291 291 291 290 290 291 290 290 290 290 290 289 289 288 289 289 289 289 289 290 289 288 288 287 288 288 288 288 289 289 289 290 289 290
283 280 283 283 279 277 277 282 285 281 279 284 286 287 288 288 289 289 289 290 290 290 289 289 288 289 289 288 288 288 287 287 287 287 286 286 286 286 287 288 289 288 288 288 289 289 290 292 291 290 291 290 290 291 291 290 290 290 290 290 290 290 289 288 288 287 288 289 288 289 289 289 288 289 289 289 289 288 289 288 290 290 289 289 291 290
282 282 279 278 279 277 281 286 286 286 285 286 287 288 289 289 288 288 288 288 288 288 287 287 287 287 287 287 288 288 287 286 286 286 285 285 285 285 285 286 286 287 288 289 289 289 289 289 290 289 289 289 289 289 289 288 288 288 289 289 288 288 287 287 287 287 286 288 288 288 289 289 289 290 291 291 291 290 288 288 289 289 290 290 290 290
Wind_Speed
3 5 7 11 9 2 3 5 6 6 6 7 6 4 6 5 8 5 8 7 2 2 7 9 9 10 14 15 14 12 4 7 11 10 10 10 10 11 11 11 10 5 4 7 10 8 12 13 12 16 17 14 12 8 9 10 10 9 8 7 7 6 7 7 7 7 7 5 4 3 4 5 5 5 4 4 3 2 2 2 3 3 4 3 4 4
4 7 12 8 3 5 7 6 5 5 5 7 7 7 10 6 8 7 12 6 1 3 5 8 10 12 17 15 14 12 4 5 12 14 14 13 12 13 15 12 8 8 10 18 17 19 18 14 14 15 12 10 12 9 11 13 11 10 10 9 6 5 5 6 7 7 6 5 5 5 6 4 5 4 4 4 2 3 3 3 3 3 3 4 4 4
4 12 8 6 9 6 6 6 6 6 7 6 7 8 7 10 7 13 12 2 1 3 8 10 10 13 18 15 14 12 9 7 13 19 19 20 15 12 11 9 11 13 16 18 15 16 20 20 18 16 16 14 12 11 12 10 10 10 9 7 6 6 6 6 6 7 6 4 4 4 4 4 3 1 3 4 3 4 5 4 4 3 3 4 3 4
6 8 14 11 5 5 6 6 5 5 4 5 6 4 9 7 5 9 4 3 6 2 5 6 9 12 14 11 13 13 9 4 10 18 21 20 20 15 15 12 13 16 15 15 14 13 11 13 12 11 10 11 9 1 1 7 10 9 8 8 8 7 7 7 6 7 5 5 4 1 3 3 3 3 3 3 3 3 3 4 3 3 4 4 4 3
10 14 2 5 6 7 9 7 6 5 7 6 7 7 7 9 8 8 6 6 6 10 2 5 2 4 8 7 6 9 2 1 5 13 15 14 17 14 9 12 12 15 16 16 14 13 13 13 15 14 13 13 16 14 8 6 7 7 9 9 9 8 8 7 6 6 5 5 3 4 4 4 5 4 4 5 3 3 3 3 3 4 4 4 3 3
10 18 4 4 8 7 6 8 9 6 7 6 6 10 12 13 12 5 5 5 6 8 5 5 2 4 5 3 10 5 2 2 5 14 14 14 7 9 12 14 14 12 13 17 14 14 14 14 13 11 12 12 12 15 15 13 9 8 8 8 7 7 7 7 6 6 6 6 7 7 8 8 6 6 6 6 6 3 4 4 1 3 3 4 4 3
10 9 5 10 7 8 8 9 9 7 8 5 7 9 15 14 7 3 6 2 3 3 7 3 1 4 4 0 4 1 1 2 3 9 13 12 9 9 11 12 14 15 13 12 14 14 14 12 12 11 12 12 14 13 11 12 11 9 9 9 9 8 7 6 5 6 6 6 6 8 9 8 9 9 5 5 5 6 3 3 4 4 3 4 5 3
4 9 7 7 6 7 7 8 9 10 7 6 4 5 7 5 5 4 3 2 6 2 8 2 4 3 1 2 2 2 3 5 7 5 7 10 11 11 11 13 15 13 14 12 15 14 14 14 15 15 11 10 10 10 8 9 10 11 10 9 8 6 6 5 6 7 7 8 7 7 7 8 8 8 7 7 5 4 4 5 4 4 4 4 4 5
4 6 6 8 7 6 8 13 10 9 8 7 7 8 6 6 4 3 2 4 3 3 9 8 1 1 2 5 2 1 2 3 6 12 10 8 11 12 12 13 14 13 11 13 11 12 14 13 11 12 13 10 10 10 11 10 10 10 10 9 8 8 7 6 7 8 6 7 8 8 8 8 6 7 7 6 6 6 5 5 3 4 4 4 3 3
3 8 8 10 7 8 11 12 13 10 8 8 6 6 3 0 1 1 3 3 2 1 7 9 1 1 3 5 6 3 3 0 3 4 6 10 14 13 14 13 12 11 12 14 16 14 14 13 13 13 13 13 14 14 13 13 14 14 12 11 10 9 6 7 7 7 6 5 7 8 7 8 6 6 6 6 6 5 4 5 4 4 5 5 6 5
10 8 8 4 7 10 9 11 14 12 13 2 5 4 3 1 1 1 1 1 2 3 8 10 3 2 1 3 0 1 1 1 8 8 9 12 12 12 12 13 12 12 13 13 14 14 14 14 14 14 15 13 12 13 17 17 14 12 12 12 11 8 5 6 7 7 8 6 7 8 8 8 8 8 8 8 6 5 4 6 4 5 4 4 6 5
7 6 4 3 8 5 6 3 2 8 6 4 2 3 2 6 4 0 2 2 2 4 8 6 4 6 2 4 5 5 6 4 12 15 15 14 15 13 12 11 12 12 12 11 11 10 11 10 10 12 14 12 11 9 8 8 10 10 11 12 12 7 5 4 5 5 6 6 6 5 6 8 8 9 8 9 8 6 6 6 5 3 5 4 5 4
5 5 4 8 4 9 4 6 5 0 2 1 2 5 2 3 3 1 1 1 3 5 4 2 7 2 2 2 6 9 8 2 5 17 20 17 16 14 13 12 10 10 10 10 9 11 11 12 12 11 9 7 5 9 11 11 10 9 8 9 10 7 6 6 5 5 4 4 4 4 4 6 7 7 8 7 7 5 6 5 5 4 5 5 5 4
8 6 4 5 4 3 4 3 1 2 1 3 1 3 2 2 1 1 3 1 2 5 6 4 1 1 2 2 8 9 6 1 14 10 10 16 19 17 14 11 10 10 11 10 10 11 10 8 7 7 9 8 7 8 8 9 9 8 7 8 9 8 6 6 6 5 4 3 3 3 2 3 3 5 6 6 7 5 6 6 6 5 6 6 5 4
2 7 7 1 2 2 3 6 8 5 2 5 4 7 7 6 3 2 1 2 5 7 4 3 3 2 4 2 9 6 4 6 10 16 15 13 10 9 9 9 8 10 7 7 8 7 8 6 7 10 10 8 5 5 5 5 7 7 8 10 10 8 6 6 6 4 4 4 3 3 1 0 1 4 5 6 6 6 5 5 5 4 5 5 3 5
6 6 7 5 5 4 7 4 5 3 1 3 2 5 3 7 6 3 4 3 2 1 1 2 1 1 6 1 6 5 11 12 9 13 19 16 12 12 9 7 8 8 8 7 7 7 9 8 8 9 9 8 6 6 3 5 5 7 8 9 10 10 8 7 5 4 6 4 4 3 1 1 3 3 4 5 4 4 5 5 6 5 4 5 4 4
1 3 6 6 2 5 9 5 3 7 3 3 3 2 9 7 8 4 2 1 3 3 1 0 3 4 1 7 13 8 14 12 9 9 11 13 14 13 11 8 8 7 8 7 7 8 9 8 8 8 8 8 7 6 6 4 4 4 6 8 9 8 7 6 5 6 5 5 5 3 1 1 4 5 6 6 5 4 4 6 5 6 5 4 5 4
3 6 6 2 6 4 5 6 5 8 8 2 0 7 1 2 5 5 4 1 2 3 3 3 2 2 4 0 7 13 11 9 9 6 8 8 10 12 10 10 8 7 7 6 7 7 7 7 7 6 7 8 7 7 6 6 4 4 6 9 11 9 9 7 8 7 6 6 5 3 0 2 4 4 5 5 5 5 6 5 6 5 6 4 4 4
4 7 8 6 8 6 2 3 4 3 2 8 7 2 2 1 3 3 4 1 1 0 0 2 0 2 1 1 4 5 4 8 10 7 4 8 8 10 9 9 6 4 5 6 6 9 8 8 8 7 7 5 5 7 7 6 5 4 3 3 5 9 9 10 7 5 5 5 4 4 3 4 4 4 5 5 5 5 7 7 6 5 5 4 4 5
2 2 7 3 0 1 5 4 2 7 6 2 1 1 1 5 2 3 4 4 6 2 2 2 4 0 1 1 0 2 3 3 7 11 8 8 8 8 11 9 7 6 5 6 5 4 7 8 6 5 6 8 7 6 5 4 3 3 1 2 2 2 3 4 4 5 5 4 6 5 3 4 4 5 6 6 7 6 7 6 6 6 5 4 3 4
1 1 5 5 4 1 1 2 2 1 2 3 1 2 1 2 2 4 1 1 5 5 4 2 1 0 1 0 3 3 3 4 5 7 6 8 9 8 6 6 6 6 6 5 4 3 3 4 5 4 5 5 6 6 5 5 4 4 3 3 2 4 5 6 5 5 4 5 5 6 5 6 5 5 6 6 7 8 7 6 6 5 5 4 4 4
1 1 5 5 3 3 4 6 6 8 6 2 3 1 2 3 3 2 3 3 2 6 4 5 3 1 2 0 3 7 1 4 6 7 8 8 7 6 6 7 8 7 6 5 4 6 8 9 10 9 7 8 8 6 5 3 3 3 4 4 6 6 6 6 6 5 4 4 5 5 5 5 5 6 6 7 6 8 7 7 6 6 5 5 4 4
2 1 1 1 2 4 6 2 8 9 12 9 7 4 2 1 3 4 4 3 3 1 5 4 7 1 3 1 3 4 4 6 6 9 9 8 8 8 6 4 4 6 5 5 5 8 8 7 5 9 7 5 5 3 4 5 5 5 4 5 6 7 5 6 6 5 4 5 6 9 10 8 3 3 6 7 6 7 7 6 6 5 6 5 5 4
4 2 2 3 4 4 1 3 12 8 5 7 6 4 4 3 1 4 6 8 6 1 3 1 2 1 2 2 3 1 4 5 5 7 10 9 10 12 11 9 7 8 7 6 7 7 7 7 7 9 6 6 4 4 5 5 5 4 4 4 5 8 7 8 7 7 7 7 10 11 11 10 9 12 8 3 6 6 5 6 5 4 6 6 5 5
0 2 3 1 1 1 4 3 5 7 7 3 1 3 2 1 2 2 2 2 6 7 8 7 5 3 2 2 5 2 3 8 9 6 8 10 7 10 11 8 7 7 7 8 8 8 8 9 10 8 5 5 5 5 6 7 7 7 5 3 3 4 5 7 6 7 6 8 9 8 7 7 6 6 3 11 3 5 5 5 5 4 5 5 5 4
4 1 2 2 4 5 4 5 6 2 0 0 1 5 8 12 9 2 3 1 4 2 3 5 3 2 5 4 3 3 7 10 8 5 8 9 10 11 11 10 10 10 10 11 11 12 12 10 10 9 8 7 6 5 5 5 5 5 5 5 4 5 7 6 7 7 7 7 8 7 7 5 3 6 9 5 1 3 0 4 5 4 4 5 5 4
2 1 3 2 2 3 1 2 3 7 3 4 2 7 6 6 7 3 3 6 3 2 4 0 9 9 8 8 6 4 5 9 6 8 11 13 14 14 13 10 10 11 13 14 12 12 14 14 13 11 9 7 6 6 6 5 6 6 6 6 6 5 6 6 7 7 7 7 7 7 5 5 8 3 4 3 1 5 4 3 1 4 4 4 4 5
3 3 3 2 1 1 4 2 1 2 8 5 4 3 6 7 5 10 6 0 0 7 1 0 13 16 10 8 6 7 7 7 6 8 12 13 11 11 12 12 13 14 13 13 14 15 14 12 12 12 10 10 8 8 7 6 5 5 5 5 5 4 5 5 7 6 5 6 6 6 4 6 7 4 3 2 3 4 1 1 5 3 2 3 4 4
3 2 4 3 2 4 1 2 2 2 4 5 8 5 6 5 9 7 2 3 0 3 6 8 10 12 10 8 6 7 9 11 10 10 14 13 11 11 13 14 14 13 13 14 12 11 11 12 11 12 12 11 11 12 11 10 9 7 6 6 5 7 6 5 6 6 5 3 4 5 5 5 5 4 4 4 4 5 4 3 3 5 4 2 3 3
4 2 2 3 2 7 7 5 4 3 4 9 8 8 3 7 7 9 6 5 3 1 5 14 7 6 5 5 7 7 6 9 8 10 13 14 13 13 14 13 13 12 13 13 12 10 10 10 10 12 13 14 12 12 12 11 10 9 8 7 7 8 7 6 7 7 6 5 4 5 5 3 4 4 6 8 8 5 4 3 5 4 2 1 0 0
1 1 3 3 3 4 8 9 7 7 4 8 8 9 9 6 5 6 6 5 11 10 8 9 10 7 4 7 9 10 9 9 11 11 12 11 12 13 14 14 13 12 10 10 10 11 10 9 10 10 12 12 12 12 11 11 11 11 11 9 9 8 6 6 8 8 6 6 6 5 5 5 6 5 4 6 2 1 3 1 1 5 4 3 2 2
2 1 1 2 3 3 6 7 8 4 5 9 9 11 9 7 4 0 4 2 6 5 8 10 6 4 5 9 11 9 9 11 11 11 10 9 10 13 15 14 13 12 11 11 11 11 13 13 13 11 10 9 9 9 9 10 11 12 11 11 11 10 10 10 11 10 9 7 6 5 6 4 3 3 2 2 1 1 2 3 2 2 6 4 2 3
4 5 2 1 4 1 4 3 5 1 3 4 6 7 8 6 5 2 5 5 5 13 9 8 2 4 6 8 15 9 11 12 12 10 10 9 7 10 12 13 12 11 11 10 11 11 12 11 9 10 10 9 9 8 7 8 12 12 9 10 9 9 10 10 10 10 10 10 10 9 7 4 4 4 2 2 1 1 1 2 3 6 5 3 3 3
1 5 4 2 4 1 4 7 4 3 2 2 1 3 3 5 2 6 4 4 6 3 2 5 7 7 6 8 15 10 12 9 8 5 5 5 8 10 10 10 11 11 10 10 10 11 9 9 7 7 9 9 8 7 6 9 9 8 8 8 8 9 9 10 10 9 9 9 9 8 7 7 8 7 5 3 3 2 2 3 2 3 2 2 1 1
4 4 2 1 3 2 1 2 2 1 2 1 2 7 9 5 10 13 9 10 8 7 15 14 10 11 10 9 11 13 12 9 10 9 9 8 7 8 11 10 10 10 10 10 11 9 9 8 7 7 8 7 7 8 9 10 8 7 9 8 10 9 10 10 10 10 8 8 7 7 6 6 6 7 7 6 6 6 7 6 7 4 3 3 4 5
3 5 3 3 2 2 2 2 2 2 0 3 2 5 9 1 5 5 10 10 11 7 5 14 10 8 11 14 13 12 12 8 8 9 7 8 7 6 8 9 8 8 9 8 9 7 7 8 7 8 6 1 3 6 8 8 7 10 10 9 9 9 10 10 10 10 9 10 9 8 7 7 7 6 5 6 6 7 7 7 6 6 7 5 3 0
6 4 4 2 0 3 2 2 3 1 1 6 4 5 4 4 5 3 4 4 8 5 8 12 12 12 12 11 14 14 12 10 11 7 6 4 6 7 7 6 6 7 7 6 7 6 4 5 5 4 3 3 3 6 6 4 6 7 7 8 8 9 10 12 11 10 9 9 9 9 9 8 8 8 8 7 7 8 8 8 8 7 7 6 6 5
2 3 3 4 0 3 5 4 2 1 0 1 2 3 2 4 4 3 2 2 5 7 7 13 14 13 13 11 12 14 10 14 9 2 3 2 2 5 5 4 3 5 7 7 5 4 3 3 3 2 3 3 5 3 3 3 5 7 8 8 7 9 9 10 8 7 8 8 8 9 9 10 10 11 10 10 10 9 7 6 5 7 6 7 7 7
8 6 5 5 2 3 3 3 1 3 2 2 5 6 3 4 3 1 3 2 1 3 4 9 11 9 12 13 12 6 4 6 5 4 3 2 1 2 6 4 4 4 5 5 6 7 4 3 2 3 4 7 8 5 4 6 7 8 8 6 6 7 8 8 6 6 7 7 6 7 7 8 9 9 9 10 10 9 9 8 7 5 6 6 6 6
11 6 5 6 4 2 2 3 1 0 1 2 5 6 7 3 2 2 2 3 3 4 5 8 9 8 7 3 2 2 7 10 8 6 5 4 4 3 4 5 5 6 6 4 5 3 3 4 6 7 7 7 5 4 5 5 7 7 6 6 5 7 7 6 4 4 3 5 6 7 7 7 8 8 9 9 9 9 9 8 9 10 9 8 6 7
4 4 5 3 2 4 5 2 1 1 2 4 6 8 7 3 1 2 5 1 4 7 8 7 8 6 5 6 3 4 2 7 10 9 6 4 4 4 3 3 6 7 8 7 5 3 4 5 4 6 6 6 6 6 6 6 7 7 6 6 7 7 6 4 4 5 5 5 7 7 7 7 7 7 7 7 6 6 7 7 8 8 9 9 9 9
3 2 1 2 5 3 1 4 2 0 0 6 7 3 3 2 1 4 1 3 5 4 3 4 7 5 5 6 9 10 10 9 9 7 6 5 5 4 4 5 6 7 5 6 8 7 6 5 6 7 8 7 7 7 7 7 8 6 6 8 11 9 8 9 8 8 8 9 9 8 8 7 6 5 4 4 4 5 5 5 5 6 6 7 7 8
1 2 1 2 1 1 3 3 2 0 2 11 11 3 5 3 1 1 2 9 6 7 7 6 7 8 12 8 9 12 11 9 8 8 8 7 7 6 6 6 7 7 7 8 9 7 6 6 7 6 4 5 5 5 6 7 8 8 9 10 7 6 8 8 8 8 9 9 9 7 6 6 7 6 5 6 5 4 4 4 4 4 5 5 5 5
0 3 1 1 0 1 2 2 0 1 3 10 3 4 2 1 0 2 5 8 8 6 5 8 7 5 10 13 11 11 10 10 8 8 8 7 7 7 8 8 7 7 6 6 6 6 6 5 4 3 3 4 4 4 4 5 8 8 9 7 4 6 7 7 6 7 7 6 6 6 6 6 6 6 6 7 7 6 6 6 5 5 5 5 5 5
6 2 1 4 3 1 2 3 2 2 3 5 8 6 3 5 7 5 11 8 8 7 4 9 7 6 6 10 10 9 9 7 7 6 7 6 7 7 7 6 6 6 6 6 6 6 6 5 3 3 3 5 6 5 5 5 7 6 6 3 4 7 7 7 7 7 7 6 6 6 5 5 6 6 6 6 6 7 6 6 6 6 5 4 5 5
3 7 6 8 5 9 8 6 4 4 7 8 6 5 7 7 6 8 11 11 7 7 6 8 8 8 7 6 11 7 6 7 9 8 7 7 7 7 7 7 7 6 6 5 5 5 4 4 1 4 5 6 5 7 6 6 6 6 3 2 3 4 4 4 5 5 4 4 4 4 4 4 4 4 4 4 4 3 3 3 4 5 5 4 4 3
1 1 3 6 4 3 3 2 6 7 5 7 8 6 6 6 6 7 9 8 8 8 10 9 10 9 8 8 9 9 8 7 8 6 6 7 7 6 6 6 4 5 5 4 3 4 6 4 4 5 5 5 4 5 5 5 5 4 3 3 3 3 3 4 3 2 2 2 3 3 3 4 4 5 5 4 4 4 4 5 5 5 4 4 5 4
3 1 8 3 3 4 4 5 4 3 4 3 5 7 7 6 7 6 7 7 7 7 7 7 7 7 6 7 7 9 7 6 6 5 7 6 5 5 5 5 5 5 4 3 4 4 4 4 4 4 5 5 3 4 5 5 4 3 3 3 3 3 4 4 4 4 4 4 3 3 2 3 4 4 4 4 3 5 5 5 5 5 6 6 6 6
1 2 1 2 4 3 6 5 6 6 5 3 3 3 4 5 6 5 6 7 8 9 8 7 6 4 5 6 5 8 9 8 7 7 6 4 5 4 4 5 5 4 3 4 3 3 2 2 3 3 5 4 3 4 5 4 3 3 4 3 3 5 7 6 5 5 5 5 5 5 4 5 4 5 5 4 4 4 3 5 5 5 5 5 6 6
5 4 1 7 7 4 5 6 7 6 2 1 4 6 4 4 5 5 5 6 7 7 5 7 6 6 5 5 7 9 10 8 8 9 9 6 5 4 4 5 4 4 4 3 4 4 4 4 3 4 4 2 3 5 4 4 3 3 4 4 5 5 5 4 5 5 5 5 5 5 6 6 6 6 6 6 6 6 6 5 6 6 6 6 8 11
4 3 4 5 7 4 4 5 3 6 5 4 6 4 6 4 6 6 5 5 4 4 5 7 8 8 8 5 6 10 9 9 7 8 8 6 4 4 4 4 5 5 5 5 6 5 5 5 5 4 4 2 2 4 4 3 3 4 4 4 3 3 4 3 3 4 6 4 4 5 5 5 6 6 6 6 6 6 7 7 5 8 11 10 10 10
Wind_Direction
128 193 221 223 233 210 264 217 227 241 268 285 296 284 267 260 274 277 272 272 251 257 242 245 244 241 244 237 237 236 200 152 162 151 168 171 169 174 183 193 188 141 101 67 97 91 71 55 73 94 102 127 147 130 128 138 150 152 157 155 158 145 136 135 138 142 145 146 132 122 170 186 189 197 203 213 232 226 207 184 163 163 149 135 137 138
131 210 233 232 197 197 222 224 234 264 256 243 262 273 280 274 274 272 274 291 294 184 270 244 244 240 243 236 234 236 153 162 161 154 164 174 179 182 188 184 145 115 81 73 80 79 67 77 86 96 115 135 141 163 153 156 147 147 154 162 154 135 138 148 150 148 153 160 170 164 181 184 175 180 176 209 231 199 182 161 165 173 154 145 148 147
202 225 244 228 216 209 226 228 222 214 244 250 226 257 274 267 270 275 270 343 224 216 254 259 248 240 241 233 232 228 210 191 173 158 171 177 180 186 192 166 126 105 99 103 100 106 126 130 134 139 148 158 160 157 163 144 141 146 154 154 154 158 152 158 156 150 163 174 170 168 172 170 141 191 185 177 179 168 157 166 172 165 160 146 152 148
265 267 236 226 206 201 241 236 244 251 251 234 258 255 246 255 256 283 267 5 304 194 275 270 239 244 244 240 229 233 198 195 177 169 173 175 177 178 186 163 124 108 120 112 112 115 115 119 116 116 128 126 102 49 110 153 147 147 153 160 164 164 162 162 170 167 165 165 169 137 127 140 139 161 158 118 114 120 125 168 165 161 160 159 154 148
219 255 137 192 214 195 227 239 235 237 259 244 224 238 250 261 246 219 280 321 304 311 215 264 262 264 248 237 258 272 260 60 167 170 171 176 176 173 101 85 116 125 121 121 120 119 118 121 132 142 150 145 144 151 164 176 166 157 160 167 167 167 166 167 165 166 144 130 116 88 89 95 78 66 93 95 83 131 157 138 145 173 165 149 133 138
250 251 210 198 210 217 217 248 235 188 242 268 230 213 235 246 255 273 301 349 356 313 319 121 1 271 298 267 229 243 14 123 159 154 168 173 150 97 110 115 111 106 123 133 129 127 129 137 139 142 143 154 163 156 164 162 162 155 160 164 168 168 165 165 165 153 145 153 144 137 139 141 132 129 128 143 155 159 152 163 157 97 141 135 134 135
232 246 170 222 211 217 220 229 238 163 223 236 262 210 226 237 236 255 279 316 305 254 281 76 161 265 325 161 226 302 133 87 134 159 157 157 141 114 123 125 123 130 127 118 119 126 133 145 139 150 159 164 158 161 158 156 156 161 162 171 172 170 163 154 153 156 148 139 160 161 158 147 147 150 180 164 161 156 171 119 107 113 126 137 135 147
218 238 210 221 208 211 221 244 238 170 186 238 240 189 203 187 191 234 243 191 242 264 291 29 136 171 297 291 247 215 98 100 137 135 151 159 130 120 121 125 128 131 134 125 127 134 146 151 155 161 165 168 162 147 143 142 151 159 167 170 172 169 161 156 160 161 156 154 169 149 142 148 153 159 166 160 156 149 142 118 121 99 96 108 137 151
200 241 205 218 214 200 211 226 235 177 182 215 229 209 235 235 215 233 254 254 244 327 290 307 32 49 277 270 318 21 23 34 152 146 161 141 110 119 119 124 130 128 124 126 125 140 152 157 158 156 165 167 150 155 154 157 157 161 169 169 171 176 167 157 171 161 163 157 163 149 151 154 167 153 147 143 140 138 132 114 102 92 83 82 77 102
272 216 225 217 175 212 222 226 230 191 204 255 218 200 209 179 173 187 236 281 326 157 275 280 7 172 284 276 328 340 93 354 137 77 121 113 126 127 127 130 133 130 125 133 149 159 159 160 164 169 162 161 166 169 164 164 168 171 168 167 174 184 169 160 171 163 158 171 152 147 158 153 153 136 130 131 137 137 132 120 118 108 96 86 75 66
252 278 265 224 215 211 204 216 219 211 211 188 172 203 258 331 331 12 185 136 65 228 256 242 274 144 294 279 242 52 239 151 109 93 96 109 116 120 130 137 138 139 139 148 158 162 163 169 165 161 168 176 171 184 181 169 164 160 162 164 176 180 149 162 172 165 165 172 158 158 162 152 144 140 137 133 136 135 121 126 129 117 116 99 104 95
284 273 270 237 221 206 188 238 192 183 199 156 142 171 23 315 22 179 329 79 159 271 258 239 193 141 213 298 321 262 279 182 146 138 134 131 128 135 140 140 140 141 146 147 148 153 159 167 173 167 162 175 178 173 178 157 154 164 165 166 167 159 151 159 166 163 163 163 167 164 159 147 147 144 145 147 153 152 143 142 139 140 107 96 96 99
306 267 230 253 252 196 182 195 287 43 56 147 81 51 126 275 29 321 9 187 196 197 245 212 127 50 244 216 257 298 304 324 173 150 148 138 139 142 143 140 138 138 139 148 153 156 163 167 168 165 153 152 174 183 174 161 159 158 159 158 156 163 151 162 166 168 161 153 167 151 148 147 149 147 146 148 142 148 142 142 137 136 124 117 98 102
275 276 291 260 250 194 117 163 315 338 324 102 180 136 128 216 281 227 272 210 305 282 259 252 14 145 260 321 356 333 342 57 110 94 107 132 143 146 142 138 140 147 153 161 163 165 157 158 160 144 154 168 185 185 166 157 157 156 149 150 160 167 156 159 165 159 145 152 140 109 114 135 142 148 145 146 141 152 142 147 150 152 147 140 143 129
289 321 297 178 289 173 138 170 171 190 165 214 142 151 181 147 161 210 213 239 224 203 262 300 145 237 101 309 336 348 24 55 98 110 104 103 111 107 110 119 131 150 156 158 151 139 130 140 164 166 164 167 173 170 150 156 156 151 155 161 164 157 157 158 160 140 136 140 126 104 45 67 177 154 143 145 145 147 137 144 142 141 139 136 151 128
203 213 254 228 212 185 194 204 166 138 200 257 185 82 99 224 139 186 205 147 241 259 19 17 95 138 94 355 357 29 58 54 62 99 113 118 114 110 107 130 151 155 145 142 148 133 129 151 178 168 159 155 161 167 158 161 170 169 173 168 164 161 156 155 142 134 137 134 113 87 50 163 188 163 131 129 132 142 139 141 139 146 145 139 131 121
259 266 260 287 271 175 207 173 216 128 180 264 85 179 219 185 123 84 8 41 101 45 111 248 54 33 339 35 9 7 66 51 54 76 93 108 118 121 127 143 161 157 146 142 143 141 142 153 174 170 155 153 155 162 164 165 178 182 171 166 161 156 149 148 144 140 141 135 123 109 58 159 178 159 148 153 155 136 124 128 136 140 143 131 127 131
183 253 286 343 319 286 225 211 185 177 153 115 124 245 262 70 113 134 193 352 72 176 248 41 98 339 43 357 345 330 68 56 56 65 94 95 111 119 128 145 158 166 157 142 130 131 138 146 156 163 163 162 156 147 145 166 174 185 194 185 168 157 153 157 155 149 147 135 125 106 87 185 193 153 140 138 131 125 111 108 120 123 124 136 137 128
182 265 285 259 240 263 325 164 332 319 205 180 198 171 106 279 247 318 101 202 106 264 296 340 156 124 98 227 353 312 9 89 96 79 76 108 117 118 116 120 133 132 133 135 131 140 147 152 159 172 158 136 137 151 160 162 164 173 188 194 168 162 168 163 153 141 131 128 121 123 154 165 172 144 128 119 123 121 115 121 125 126 129 119 119 117
353 239 295 300 120 198 37 42 320 296 321 314 191 4 166 103 152 125 200 172 115 198 76 290 54 237 251 195 258 311 22 58 104 115 127 118 116 113 116 124 135 126 125 118 117 139 165 163 152 145 141 133 136 134 130 121 98 130 129 127 162 144 104 98 113 121 122 121 112 110 119 137 158 143 131 134 127 118 121 127 124 125 121 136 123 124
296 108 244 276 303 300 28 327 98 286 343 355 129 264 202 67 215 110 17 103 155 159 155 154 330 280 284 245 98 58 4 28 83 105 107 118 125 114 100 108 117 121 119 117 113 81 76 88 70 70 67 68 63 72 88 105 123 136 116 112 104 93 93 93 84 99 115 116 118 125 139 148 146 133 131 126 121 119 123 123 126 129 136 118 126 132
22 21 204 297 332 51 185 244 75 79 66 98 145 69 214 111 131 176 244 354 79 101 179 136 219 270 271 34 116 114 74 56 67 83 75 70 73 100 131 141 145 148 144 124 107 83 73 74 76 47 33 48 48 22 80 75 106 96 94 92 99 102 100 102 99 108 113 112 123 132 144 149 143 131 128 121 121 124 131 135 139 140 131 135 155 143
148 170 100 257 203 198 157 196 99 97 89 76 62 359 344 140 102 105 156 248 28 68 108 136 113 250 291 32 95 112 113 100 97 100 87 71 52 38 32 35 87 93 89 80 66 75 75 78 69 79 49 54 96 82 56 62 79 91 93 86 87 96 90 101 110 97 85 76 56 37 15 9 26 109 126 122 129 133 139 143 141 145 142 148 160 165
88 70 18 301 318 301 250 153 73 38 52 35 12 16 39 2 211 172 177 176 134 179 61 34 75 192 15 34 74 9 104 100 78 92 99 79 73 58 40 31 34 79 80 71 70 70 77 83 68 69 49 46 15 34 63 88 89 80 83 76 81 91 93 93 95 92 84 73 68 71 64 50 31 2 350 96 133 131 141 145 148 152 151 159 159 171
61 299 120 13 16 341 336 327 42 8 44 86 347 319 336 354 17 225 101 37 114 206 157 128 181 208 185 134 134 192 95 73 55 39 78 90 82 91 84 58 61 88 98 84 75 73 77 74 75 76 77 63 42 47 38 53 70 68 41 62 58 65 83 99 99 102 95 95 87 78 83 94 111 129 55 350 351 123 138 148 148 157 166 157 168 180
97 207 93 134 169 180 196 207 213 64 341 341 17 350 20 29 358 17 152 68 137 288 127 129 138 247 123 132 127 135 109 99 99 98 84 91 96 85 73 65 59 59 62 64 62 59 55 58 65 64 58 57 57 60 57 66 83 102 116 87 99 94 76 60 80 84 84 85 95 100 102 116 112 69 60 72 334 2 66 155 154 163 180 170 172 178
110 94 93 146 145 167 202 207 265 90 72 71 304 38 8 26 26 63 97 85 146 199 74 288 152 143 139 152 138 118 100 104 104 98 96 87 77 75 75 70 69 66 64 63 63 59 54 48 48 47 39 38 42 54 54 59 79 81 81 80 76 78 94 96 84 86 91 97 112 125 156 129 86 57 107 149 191 101 21 321 158 155 181 191 165 176
57 50 350 98 157 203 192 228 225 128 123 159 106 33 31 43 48 44 44 321 135 86 129 288 151 140 157 161 150 123 107 86 87 91 88 82 81 85 88 82 72 71 66 63 58 61 61 55 50 45 43 44 39 34 41 35 40 62 67 84 92 89 88 86 92 94 101 118 129 137 124 95 110 122 69 60 61 58 55 12 343 306 211 151 166 181
116 66 311 1 304 320 13 104 71 60 70 106 113 110 80 58 57 67 344 276 141 147 177 171 161 144 153 157 139 128 124 121 121 107 99 103 99 94 85 79 75 71 71 67 64 65 61 59 54 51 45 44 48 50 44 35 28 25 32 31 46 65 66 78 96 91 85 76 82 72 78 92 105 122 124 99 53 55 46 14 323 304 291 199 186 179
77 56 341 324 6 7 0 21 23 58 84 68 46 48 43 97 118 106 84 62 117 262 135 143 141 114 109 125 126 117 106 107 109 107 102 100 100 97 92 87 82 72 73 76 70 66 66 62 56 54 49 40 29 35 38 40 38 38 37 30 36 47 40 57 66 73 62 61 60 72 71 61 63 58 53 53 39 23 33 33 14 324 350 347 72 9
99 330 353 330 61 10 9 3 21 31 76 71 33 25 22 2 73 95 102 78 74 53 78 109 109 90 53 103 100 92 84 82 68 75 92 98 101 99 96 93 90 88 82 82 80 70 64 58 53 49 47 42 40 36 38 39 41 46 47 45 44 39 27 44 58 57 54 46 34 44 58 48 48 49 59 83 111 224 141 157 105 310 331 350 36 66
54 201 46 71 80 348 351 16 9 111 87 69 33 13 2 356 95 134 110 183 106 120 116 109 105 121 97 86 80 67 66 71 87 96 95 96 105 107 104 102 100 94 85 75 68 63 58 54 52 45 45 37 31 26 34 39 42 46 49 54 58 55 49 52 54 56 57 55 55 51 56 48 39 68 34 72 120 317 1 54 36 341 315 334 2 70
149 131 91 52 71 329 318 339 51 330 70 22 360 330 321 279 249 21 34 46 126 138 134 151 126 87 127 115 95 71 83 87 88 94 103 103 104 103 102 101 98 93 85 77 68 65 63 55 46 48 40 30 25 35 23 39 50 46 39 48 49 60 57 57 55 53 52 52 52 45 46 39 35 25 7 359 27 67 56 107 195 212 240 301 336 355
22 110 141 135 119 221 337 352 23 96 140 217 321 318 323 284 293 91 49 9 1 354 163 127 118 99 81 100 108 99 90 86 93 52 78 113 121 105 93 93 97 101 98 92 89 81 71 74 53 48 58 44 19 6 26 46 57 58 54 55 52 56 58 61 58 54 53 54 51 42 39 43 41 37 36 46 53 73 117 129 202 250 294 359 8 32
82 66 85 113 96 166 355 68 49 66 203 143 349 345 340 4 84 95 82 43 25 62 98 96 99 98 88 76 91 96 83 37 47 40 24 35 44 86 97 90 83 87 91 94 88 84 86 77 74 66 52 49 36 14 26 34 27 45 52 48 56 52 55 52 54 50 48 52 53 52 49 53 50 44 31 25 25 30 35 29 24 45 110 186 262 287
106 107 143 51 98 61 60 59 136 242 129 337 289 355 340 341 1 54 52 15 11 349 101 112 111 95 105 107 99 92 93 99 72 47 32 27 33 50 84 93 100 97 90 86 90 89 92 94 90 80 72 22 40 48 43 44 25 48 44 38 46 51 52 49 47 45 39 39 36 38 39 46 50 49 45 37 29 33 29 20 20 19 5 24 6 346
121 103 98 86 21 121 139 87 100 114 298 13 3 23 21 23 339 6 90 349 352 330 115 123 121 117 114 122 121 117 112 88 64 38 5 41 63 58 65 62 82 91 94 88 91 88 85 98 101 111 122 117 81 77 62 48 59 68 64 50 40 48 50 46 39 35 37 37 29 27 29 32 35 34 32 33 37 32 23 17 8 3 5 7 3 7
71 122 212 102 297 113 124 110 104 34 286 277 240 264 171 197 227 211 105 330 359 4 123 134 133 134 130 133 131 134 133 86 76 45 311 6 65 96 90 95 87 106 112 118 105 96 83 61 56 74 95 94 85 72 82 67 65 73 71 64 50 49 48 55 48 36 40 37 28 27 24 25 25 21 16 18 18 15 12 16 13 12 3 9 354 352
36 66 83 103 126 51 64 108 134 159 237 207 276 292 269 195 219 100 73 0 357 42 85 124 126 139 143 150 161 163 85 91 135 192 227 214 152 106 105 84 67 59 59 62 81 83 65 36 32 39 70 71 60 40 52 60 63 62 60 58 59 62 59 57 48 37 39 37 37 35 32 28 28 23 18 13 6 5 6 6 3 356 5 4 357 348
45 6 23 52 45 52 103 77 123 117 117 309 295 295 298 301 232 110 142 270 144 118 117 119 121 137 152 157 150 115 125 130 160 195 191 178 152 142 98 93 73 56 39 28 29 36 28 19 36 50 54 58 60 64 67 73 67 62 57 47 50 51 49 43 39 42 44 43 42 41 37 35 31 26 21 14 7 5 3 356 1 1 358 356 358 347
9 4 38 90 94 79 87 104 64 326 309 322 305 301 308 286 87 109 198 248 151 145 138 133 135 141 151 148 217 103 351 124 141 148 150 156 107 79 71 72 82 79 68 53 41 34 30 16 33 56 48 37 35 36 40 51 59 56 50 42 41 33 21 18 28 33 36 45 48 45 44 39 40 35 29 27 19 5 2 2 358 355 357 350 346 347
10 62 0 66 36 50 55 90 142 259 288 335 303 302 292 62 87 216 264 290 161 131 77 113 112 101 105 121 117 105 113 116 121 126 128 123 121 119 107 99 90 80 78 72 61 59 61 58 60 52 40 29 31 25 23 32 36 37 34 37 31 21 23 34 36 39 39 40 38 36 35 34 28 38 38 34 30 21 9 352 353 351 348 344 344 343
294 84 14 49 315 38 42 65 53 19 309 345 310 351 15 107 196 96 89 32 46 91 100 82 100 118 110 83 94 109 106 102 109 113 115 115 110 106 97 88 79 72 60 52 45 36 57 65 64 61 44 24 28 22 23 26 23 19 26 39 27 32 43 42 38 37 36 32 29 23 24 21 21 19 19 15 12 18 13 2 5 356 355 354 347 343
312 86 32 26 283 109 43 65 135 265 291 334 43 120 318 308 59 32 87 70 43 49 66 83 52 78 113 118 117 105 107 109 100 105 101 97 95 90 89 89 83 72 60 54 56 46 50 57 68 57 43 36 24 11 12 40 42 46 50 33 2 37 44 42 39 41 37 30 23 18 12 14 16 19 17 11 8 9 7 1 0 360 359 354 351 344
321 125 162 107 341 115 151 120 128 159 65 28 57 85 79 51 66 75 82 75 77 51 43 82 77 63 83 103 98 103 102 99 107 106 104 104 97 91 85 85 92 89 73 62 42 35 43 42 67 60 30 11 6 6 23 61 75 60 55 6 23 41 39 35 34 36 31 21 15 8 1 12 19 17 14 11 11 5 356 351 351 354 346 353 350 344
60 102 110 84 64 80 64 101 136 79 78 68 53 68 78 65 48 63 76 83 57 66 58 83 80 76 73 81 95 78 88 104 96 91 93 90 86 81 86 83 80 76 71 58 39 36 40 26 49 70 52 38 40 53 57 67 84 82 67 28 50 57 61 55 46 38 24 12 9 4 14 22 12 12 7 5 5 358 340 340 338 340 329 339 331 331
284 17 52 105 177 70 95 118 100 107 91 92 85 70 64 75 78 76 78 74 77 69 67 59 69 65 63 65 78 91 84 83 88 87 93 95 92 90 89 90 85 91 91 74 46 42 26 41 59 68 71 59 35 70 75 76 69 89 96 78 70 65 69 64 62 56 33 18 12 21 36 21 1 355 354 352 347 348 348 340 341 334 330 325 323 323
5 58 77 83 58 93 147 140 113 98 95 98 107 103 94 86 83 80 96 103 94 81 75 72 72 68 65 72 76 82 73 63 73 76 88 94 100 97 91 86 84 76 77 78 39 52 59 62 78 76 81 73 63 71 74 78 85 94 90 77 66 69 61 44 30 22 11 5 7 6 6 355 347 349 340 332 334 333 333 333 328 329 319 321 316 317
195 53 112 134 94 58 66 82 105 85 63 61 71 76 99 110 107 100 99 102 101 94 88 75 76 100 105 112 89 80 64 47 56 74 84 78 73 69 74 74 67 70 54 43 34 73 88 97 73 73 85 94 91 77 77 82 81 81 82 75 63 49 42 25 8 3 357 353 353 343 340 344 337 332 329 320 319 306 291 293 307 303 297 287 284 284
53 65 100 85 97 147 170 171 139 108 134 190 139 140 128 120 111 106 94 96 106 108 100 87 59 58 77 84 87 80 81 72 67 76 74 67 60 45 40 41 36 27 23 28 41 46 68 41 26 64 83 82 68 78 83 74 60 51 51 48 44 48 48 28 5 355 348 345 345 333 340 337 333 327 327 321 316 317 311 283 281 282 285 291 290 293
113 173 124 139 155 209 220 187 149 126 134 173 164 169 148 147 123 123 125 122 105 113 119 108 91 71 72 67 83 92 92 94 89 82 71 56 40 34 37 36 30 22 25 42 59 39 53 46 41 48 61 30 37 81 89 73 58 51 39 54 49 63 58 50 10 347 331 335 332 329 325 326 326 326 320 315 311 311 307 305 295 273 274 277 283 287